Location: Shannon
(40.5500°S, 175.4167°E)
Time: 12:06:10
(UTC+00:00)

Meteor 1-21 - Pass Details

Date: 17 November 2025
Orbit: 842 x 887 km, 81.2° (Epoch: 10 December)

Event Time Altitude Azimuth Distance (km) Brightness Sun altitude
Rises 12:49:27 0° 189° (S) 3,462 8.4 -29.4°
Reaches altitude 10° 12:51:54 10° 187° (S) 2,525 7.5 -29.3°
Enters shadow 12:57:35 78° 108° (ESE) 897 4.2 -29.0°
